• In Hungary
  • List of Countries
  • For 7 days
  • Water Temperature
  • Satellite Maps
  • Weather Map
  • News
  • Weather Widgets
  • user-avatar
    Login

    Hourly Weather Muya

    Today, 19 October, Thursday

    Time Temperature Precipitation Wind Pressure Humidity
    00:00 -6°C° 0 mm 1 mps 717 mmHg 76%
    01:00 -6°C° 0 mm 1 mps 717 mmHg 76%
    02:00 -6°C° 0 mm 0 mps 716 mmHg 76%
    03:00 -6°C° 0 mm 0 mps 716 mmHg 77%
    04:00 -6°C° 0 mm 0 mps 716 mmHg 78%
    05:00 -6°C° 0 mm 0 mps 716 mmHg 79%
    06:00 -6°C° 0.1 mm 0 mps 716 mmHg 78%
    07:00 -6°C° 0.1 mm 0 mps 716 mmHg 78%
    08:00 -5°C° 0 mm 0 mps 716 mmHg 80%
    09:00 -3°C° 0.1 mm 1 mps 715 mmHg 75%
    10:00 -3°C° 0.1 mm 1 mps 715 mmHg 69%
    11:00 -4°C° 0.1 mm 2 mps 715 mmHg 64%
    12:00 -4°C° 0 mm 2 mps 715 mmHg 60%
    13:00 -4°C° 0 mm 2 mps 716 mmHg 57%
    14:00 -5°C° 0 mm 3 mps 715 mmHg 54%
    15:00 -5°C° 0 mm 2 mps 716 mmHg 57%
    16:00 -6°C° 0 mm 2 mps 716 mmHg 60%
    17:00 -7°C° 0 mm 2 mps 717 mmHg 63%
    18:00 -8°C° 0 mm 2 mps 718 mmHg 65%
    19:00 -9°C° 0 mm 2 mps 718 mmHg 68%
    20:00 -9°C° 0 mm 2 mps 719 mmHg 71%
    21:00 -10°C° 0 mm 2 mps 719 mmHg 73%
    22:00 -10°C° 0 mm 2 mps 720 mmHg 74%
    23:00 -12°C° 0 mm 2 mps 720 mmHg 75%

    Tomorrow, 20 October, Friday

    Time Temperature Precipitation Wind Pressure Humidity
    00:00 -12°C° 0 mm 2 mps 720 mmHg 75%
    01:00 -12°C° 0 mm 2 mps 721 mmHg 75%
    02:00 -13°C° 0 mm 2 mps 721 mmHg 75%
    03:00 -13°C° 0 mm 2 mps 722 mmHg 75%
    04:00 -13°C° 0 mm 2 mps 722 mmHg 75%
    05:00 -14°C° 0 mm 2 mps 722 mmHg 75%
    06:00 -14°C° 0 mm 2 mps 723 mmHg 74%
    07:00 -14°C° 0 mm 2 mps 723 mmHg 73%
    08:00 -14°C° 0 mm 2 mps 724 mmHg 72%
    09:00 -12°C° 0 mm 2 mps 724 mmHg 67%
    10:00 -10°C° 0 mm 2 mps 724 mmHg 62%
    11:00 -9°C° 0 mm 2 mps 724 mmHg 57%
    12:00 -8°C° 0 mm 2 mps 724 mmHg 55%
    13:00 -8°C° 0 mm 2 mps 723 mmHg 54%
    14:00 -8°C° 0 mm 2 mps 723 mmHg 52%
    15:00 -9°C° 0 mm 2 mps 723 mmHg 56%
    16:00 -9°C° 0 mm 1 mps 723 mmHg 59%
    17:00 -10°C° 0 mm 1 mps 724 mmHg 63%
    18:00 -10°C° 0 mm 1 mps 724 mmHg 64%
    19:00 -11°C° 0 mm 1 mps 724 mmHg 64%
    20:00 -11°C° 0 mm 1 mps 724 mmHg 65%
    21:00 -11°C° 0 mm 1 mps 724 mmHg 64%
    22:00 -12°C° 0 mm 1 mps 724 mmHg 63%
    23:00 -12°C° 0 mm 1 mps 724 mmHg 62%

    Day after tomorrow, 21 October, Saturday

    Time Temperature Precipitation Wind Pressure Humidity
    00:00 -12°C° 0 mm 1 mps 724 mmHg 61%
    01:00 -12°C° 0 mm 1 mps 724 mmHg 59%
    02:00 -12°C° 0 mm 1 mps 724 mmHg 58%
    03:00 -12°C° 0 mm 1 mps 723 mmHg 57%
    04:00 -12°C° 0 mm 1 mps 723 mmHg 56%
    05:00 -11°C° 0 mm 1 mps 723 mmHg 55%
    06:00 -11°C° 0 mm 1 mps 723 mmHg 53%
    07:00 -10°C° 0 mm 1 mps 723 mmHg 51%
    08:00 -10°C° 0 mm 1 mps 723 mmHg 50%
    09:00 -8°C° 0 mm 1 mps 722 mmHg 45%
    10:00 -6°C° 0 mm 1 mps 722 mmHg 41%
    11:00 -4°C° 0 mm 0 mps 722 mmHg 37%
    12:00 -3°C° 0 mm 0 mps 722 mmHg 38%
    13:00 -3°C° 0 mm 0 mps 721 mmHg 38%
    14:00 -1°C° 0 mm 1 mps 721 mmHg 39%
    15:00 -2°C° 0 mm 1 mps 721 mmHg 42%
    16:00 -3°C° 0 mm 1 mps 721 mmHg 46%
    17:00 -6°C° 0 mm 1 mps 721 mmHg 50%
    18:00 -6°C° 0 mm 1 mps 721 mmHg 50%
    19:00 -6°C° 0 mm 1 mps 722 mmHg 50%
    20:00 -6°C° 0 mm 1 mps 722 mmHg 50%
    21:00 -6°C° 0 mm 1 mps 722 mmHg 51%
    22:00 -6°C° 0 mm 1 mps 722 mmHg 51%
    23:00 -6°C° 0 mm 1 mps 722 mmHg 51%

    22 October, Sunday

    Time Temperature Precipitation Wind Pressure Humidity
    00:00 -7°C° 0 mm 2 mps 722 mmHg 51%
    01:00 -7°C° 0 mm 2 mps 722 mmHg 52%
    02:00 -7°C° 0 mm 2 mps 721 mmHg 52%
    03:00 -7°C° 0 mm 2 mps 721 mmHg 52%
    04:00 -7°C° 0 mm 2 mps 721 mmHg 53%
    05:00 -7°C° 0 mm 2 mps 721 mmHg 53%
    06:00 -7°C° 0 mm 2 mps 721 mmHg 53%
    07:00 -7°C° 0 mm 2 mps 720 mmHg 53%
    08:00 -7°C° 0 mm 2 mps 720 mmHg 53%
    09:00 -5°C° 0 mm 2 mps 720 mmHg 51%
    10:00 -3°C° 0 mm 2 mps 720 mmHg 49%
    11:00 -2°C° 0 mm 2 mps 719 mmHg 47%
    12:00 -1°C° 0 mm 2 mps 719 mmHg 48%
    13:00 -1°C° 0 mm 2 mps 718 mmHg 49%
    14:00 +1°C° 0 mm 2 mps 718 mmHg 50%
    15:00 -1°C° 0 mm 2 mps 718 mmHg 54%
    16:00 -2°C° 0 mm 2 mps 718 mmHg 59%
    17:00 -2°C° 0 mm 2 mps 718 mmHg 63%
    18:00 -3°C° 0 mm 2 mps 718 mmHg 64%
    19:00 -3°C° 0 mm 2 mps 718 mmHg 65%
    20:00 -3°C° 0 mm 2 mps 718 mmHg 66%
    21:00 -3°C° 0 mm 2 mps 718 mmHg 65%
    22:00 -3°C° 0 mm 2 mps 718 mmHg 65%
    23:00 -3°C° 0 mm 2 mps 718 mmHg 65%

    23 October, Monday

    Time Temperature Precipitation Wind Pressure Humidity
    00:00 -3°C° 0 mm 2 mps 717 mmHg 64%
    01:00 -3°C° 0 mm 2 mps 717 mmHg 64%
    02:00 -3°C° 0 mm 2 mps 717 mmHg 64%
    03:00 -3°C° 0 mm 2 mps 717 mmHg 65%
    04:00 -3°C° 0 mm 2 mps 716 mmHg 65%
    05:00 -3°C° 0 mm 2 mps 716 mmHg 66%
    06:00 -2°C° 0 mm 2 mps 716 mmHg 67%
    07:00 -2°C° 0 mm 2 mps 716 mmHg 68%
    08:00 -2°C° 0 mm 2 mps 716 mmHg 69%
    09:00 +1°C° 0 mm 2 mps 715 mmHg 66%
    10:00 +2°C° 0 mm 2 mps 715 mmHg 64%
    11:00 +3°C° 0 mm 2 mps 714 mmHg 61%
    12:00 +4°C° 0 mm 2 mps 714 mmHg 62%
    13:00 +4°C° 0 mm 2 mps 713 mmHg 63%
    14:00 +5°C° 0 mm 2 mps 713 mmHg 63%
    15:00 +5°C° 0 mm 1 mps 713 mmHg 68%
    16:00 +3°C° 0 mm 1 mps 713 mmHg 72%
    17:00 +2°C° 0 mm 1 mps 713 mmHg 76%
    18:00 +2°C° 0 mm 1 mps 713 mmHg 77%
    19:00 +2°C° 0 mm 1 mps 713 mmHg 79%
    20:00 +2°C° 0 mm 1 mps 713 mmHg 80%
    21:00 +2°C° 0 mm 1 mps 713 mmHg 81%
    22:00 +2°C° 0 mm 1 mps 712 mmHg 81%
    23:00 +1°C° 0 mm 1 mps 712 mmHg 81%

    24 October, Tuesday

    Time Temperature Precipitation Wind Pressure Humidity
    00:00 +2°C° 0.1 mm 1 mps 713 mmHg 82%
    01:00 +2°C° 0.1 mm 1 mps 713 mmHg 82%
    02:00 +2°C° 0.1 mm 1 mps 713 mmHg 83%
    03:00 +2°C° 0.1 mm 1 mps 714 mmHg 84%
    04:00 -1°C° 0.1 mm 2 mps 715 mmHg 85%
    05:00 -1°C° 0.1 mm 2 mps 715 mmHg 86%
    06:00 -2°C° 0 mm 2 mps 716 mmHg 84%
    07:00 -3°C° 0 mm 2 mps 716 mmHg 82%
    08:00 -3°C° 0 mm 2 mps 717 mmHg 80%
    09:00 -2°C° 0 mm 2 mps 717 mmHg 73%
    10:00 -1°C° 0 mm 2 mps 718 mmHg 66%
    11:00 +1°C° 0 mm 2 mps 718 mmHg 58%
    12:00 +1°C° 0 mm 2 mps 718 mmHg 57%
    13:00 +1°C° 0 mm 2 mps 718 mmHg 55%
    14:00 +1°C° 0 mm 2 mps 718 mmHg 53%
    15:00 +1°C° 0 mm 1 mps 718 mmHg 57%
    16:00 0°C° 0 mm 1 mps 718 mmHg 61%
    17:00 -2°C° 0 mm 1 mps 718 mmHg 65%
    18:00 -2°C° 0 mm 1 mps 718 mmHg 66%
    19:00 -2°C° 0 mm 1 mps 718 mmHg 67%
    20:00 -2°C° 0 mm 1 mps 718 mmHg 68%
    21:00 -2°C° 0 mm 1 mps 718 mmHg 68%
    22:00 -2°C° 0 mm 1 mps 718 mmHg 69%
    23:00 -2°C° 0 mm 1 mps 718 mmHg 70%
    Show more